Flag for Germany Weather past 2 weeks in Soltau, Lower Saxony, Germany

Now
64 °F

Broken clouds.


Feels Like: 64 °F
Forecast: 54 / 66 °F
Wind: 5 mph from Southwest

Location: Fassberg

Current Time: Sep 30, 2014 at 6:22:28 PM

Latest Report: Sep 30, 2014 at 5:20 PM


Visibility: 4 mi

Pressure: 30.24 "Hg

Humidity: 83%

Dew point: 59 °F

Location of SoltauLocation

Historic Weather in Soltau — Graph

°F

Soltau temperature yesterday

Maximum temperature yesterday: 73 °F (at 3:20 PM)
Minimum temperature yesterday: 46 °F (at 2:20 AM)
Average temperature yesterday: 60 °F

Past Weeks' High & Low Weather Summary

 TemperatureHumidityPressure
High73 °F (Sep 16, 3:20 PM)100% (Sep 18, 5:20 AM)30.36 "Hg (Sep 18, 5:20 AM)
Low37 °F (Sep 23, 7:20 AM)46% (Sep 21, 4:20 PM)29.80 "Hg (Sep 24, 4:20 PM)
Average58 °F80%30.04 "Hg
* Reported Sep 15 5:20 PM — Sep 30 5:00 PM, Soltau, Weather by CustomWeather, © 2014

Note: Actual official high and low records may vary slightly from our data, if they occured in-between our weather recording intervals... More about our weather records

Advertising

Soltau weather history for previous 24 hours

 ConditionsComfort  
Time TempWeatherWind HumidityBarometerVisibility
5:00 PM
Sep 30
64 °FBroken clouds.3 mph83%30.24 "Hg5 mi
4:20 PM64 °FBroken clouds.6 mph83%30.24 "Hg4 mi
3:20 PM64 °FPartly sunny.5 mph83%30.24 "Hg4 mi
2:20 PM63 °FFog.7 mph88%30.24 "Hg3 mi
1:20 PM63 °FFog.6 mph88%30.24 "Hg2 mi
12:45 PM63 °FFog.7 mph88%30.24 "Hg3 mi
12:20 PM63 °FFog.8 mph88%30.24 "Hg3 mi
11:20 AM63 °FFog.6 mph88%30.21 "Hg2 mi
10:20 AM61 °FFog.5 mph94%30.21 "Hg2 mi
9:20 AM59 °FFog.6 mph100%30.21 "Hg2 mi
8:20 AM59 °FDrizzle. Fog.6 mph94%30.21 "Hg2 mi
7:48 AM59 °FFog.3 mph94%30.21 "Hg2 mi
7:20 AM59 °FFog.5 mph94%30.18 "Hg2 mi
6:20 AM59 °FFog.5 mph94%30.18 "Hg2 mi
5:49 AM59 °FFog.6 mph100%30.18 "Hg2 mi
5:20 AM59 °FDrizzle. Fog.6 mph100%30.18 "Hg2 mi
4:20 AM61 °FDrizzle. Fog.5 mph94%30.18 "Hg2 mi
3:20 AM61 °FDrizzle. Fog.3 mph94%30.18 "Hg1 mi
2:20 AM61 °FDrizzle. Fog.2 mph94%30.18 "Hg1 mi
1:20 AM61 °FDrizzle. Fog.8 mph94%30.21 "Hg3 mi
12:20 AM63 °FOvercast.5 mph83%30.18 "HgN/A
11:20 PM
Sep 29
63 °FLight rain. Mostly cloudy.6 mph83%30.18 "HgN/A
10:20 PM64 °FPassing clouds.3 mph78%30.18 "HgN/A
9:20 PM64 °FPassing clouds.2 mph78%30.18 "HgN/A
8:20 PM66 °FPassing clouds.2 mph73%30.18 "HgN/A
7:20 PM68 °FPartly sunny.5 mph69%30.18 "HgN/A
6:20 PM70 °FPartly sunny.6 mph60%30.15 "HgN/A
Weather by CustomWeather, © 2014

See weather overviewHow to use our weather pages